• In Deutschland
  • Länderverzeichnis
  • Für 7 Tage
  • Wassertemperatur
  • Satellitenkarten
  • Wetterkarte
  • Widgets
  • user-avatar
    Anmelden

    Stündliche Wetter Loudi

    Heute, 23 September, Sonntag

    Zeit Temperatur Niederschläge Wind Luftdruck Luftfeuchtigkeit
    00:00 +22°C° 0 mm 1 m/S 751 mmHg 78%
    01:00 +22°C° 0 mm 1 m/S 751 mmHg 79%
    02:00 +22°C° 0 mm 1 m/S 751 mmHg 80%
    03:00 +22°C° 0 mm 1 m/S 751 mmHg 81%
    04:00 +22°C° 0 mm 1 m/S 750 mmHg 82%
    05:00 +22°C° 0 mm 1 m/S 751 mmHg 81%
    06:00 +23°C° 0 mm 1 m/S 751 mmHg 80%
    07:00 +24°C° 0 mm 1 m/S 751 mmHg 77%
    08:00 +25°C° 0.1 mm 1 m/S 751 mmHg 73%
    09:00 +26°C° 0.1 mm 1 m/S 751 mmHg 70%
    10:00 +28°C° 0.1 mm 2 m/S 751 mmHg 67%
    11:00 +28°C° 0.1 mm 2 m/S 751 mmHg 68%
    12:00 +28°C° 0.1 mm 2 m/S 750 mmHg 70%
    13:00 +28°C° 0 mm 2 m/S 750 mmHg 67%
    14:00 +28°C° 0 mm 2 m/S 750 mmHg 67%
    15:00 +28°C° 0 mm 2 m/S 750 mmHg 68%
    16:00 +28°C° 0 mm 2 m/S 749 mmHg 68%
    17:00 +27°C° 0 mm 2 m/S 749 mmHg 75%
    18:00 +25°C° 0 mm 2 m/S 749 mmHg 82%
    19:00 +24°C° 0 mm 1 m/S 749 mmHg 88%
    20:00 +23°C° 0 mm 1 m/S 749 mmHg 90%
    21:00 +23°C° 0 mm 1 m/S 750 mmHg 91%
    22:00 +22°C° 0 mm 1 m/S 750 mmHg 93%
    23:00 +22°C° 0 mm 1 m/S 750 mmHg 93%

    Morgen, 24 September, Montag

    Zeit Temperatur Niederschläge Wind Luftdruck Luftfeuchtigkeit
    00:00 +22°C° 0 mm 1 m/S 750 mmHg 93%
    01:00 +22°C° 0 mm 1 m/S 750 mmHg 94%
    02:00 +22°C° 0 mm 1 m/S 749 mmHg 93%
    03:00 +22°C° 0 mm 1 m/S 749 mmHg 93%
    04:00 +22°C° 0 mm 1 m/S 749 mmHg 93%
    05:00 +23°C° 0 mm 1 m/S 749 mmHg 91%
    06:00 +23°C° 0 mm 1 m/S 749 mmHg 90%
    07:00 +24°C° 0 mm 1 m/S 749 mmHg 88%
    08:00 +24°C° 0 mm 1 m/S 749 mmHg 85%
    09:00 +25°C° 0 mm 2 m/S 749 mmHg 82%
    10:00 +26°C° 0 mm 2 m/S 749 mmHg 79%
    11:00 +26°C° 0.1 mm 2 m/S 749 mmHg 77%
    12:00 +27°C° 0.1 mm 2 m/S 749 mmHg 75%
    13:00 +28°C° 0.1 mm 3 m/S 748 mmHg 73%
    14:00 +27°C° 0.3 mm 3 m/S 748 mmHg 76%
    15:00 +26°C° 0.3 mm 3 m/S 747 mmHg 80%
    16:00 +25°C° 0.3 mm 3 m/S 747 mmHg 83%
    17:00 +24°C° 0 mm 2 m/S 747 mmHg 86%
    18:00 +23°C° 0 mm 2 m/S 748 mmHg 88%
    19:00 +23°C° 0 mm 2 m/S 748 mmHg 90%
    20:00 +22°C° 0 mm 1 m/S 748 mmHg 90%
    21:00 +22°C° 0 mm 1 m/S 748 mmHg 89%
    22:00 +22°C° 0 mm 1 m/S 748 mmHg 88%
    23:00 +22°C° 0 mm 1 m/S 748 mmHg 86%

    übermorgen, 25 September, Dienstag

    Zeit Temperatur Niederschläge Wind Luftdruck Luftfeuchtigkeit
    00:00 +22°C° 0 mm 1 m/S 748 mmHg 85%
    01:00 +22°C° 0 mm 1 m/S 747 mmHg 84%
    02:00 +22°C° 0 mm 1 m/S 747 mmHg 84%
    03:00 +22°C° 0 mm 1 m/S 747 mmHg 84%
    04:00 +22°C° 0 mm 1 m/S 747 mmHg 85%
    05:00 +22°C° 0 mm 1 m/S 747 mmHg 83%
    06:00 +23°C° 0 mm 1 m/S 747 mmHg 82%
    07:00 +23°C° 0 mm 1 m/S 748 mmHg 81%
    08:00 +25°C° 0 mm 2 m/S 748 mmHg 77%
    09:00 +26°C° 0 mm 2 m/S 748 mmHg 74%
    10:00 +27°C° 0 mm 2 m/S 748 mmHg 70%
    11:00 +27°C° 0 mm 2 m/S 748 mmHg 71%
    12:00 +27°C° 0 mm 3 m/S 747 mmHg 73%
    13:00 +27°C° 0 mm 3 m/S 747 mmHg 74%
    14:00 +26°C° 0.1 mm 3 m/S 746 mmHg 78%
    15:00 +25°C° 0.1 mm 3 m/S 746 mmHg 81%
    16:00 +24°C° 0.1 mm 3 m/S 746 mmHg 85%
    17:00 +22°C° 0.2 mm 3 m/S 747 mmHg 87%
    18:00 +22°C° 0.2 mm 3 m/S 748 mmHg 88%
    19:00 +21°C° 0.2 mm 4 m/S 748 mmHg 90%
    20:00 +20°C° 0.3 mm 4 m/S 749 mmHg 90%
    21:00 +20°C° 0.3 mm 4 m/S 749 mmHg 90%
    22:00 +19°C° 0.3 mm 4 m/S 750 mmHg 90%
    23:00 +19°C° 0.9 mm 3 m/S 749 mmHg 90%

    26 September, Mittwoch

    Zeit Temperatur Niederschläge Wind Luftdruck Luftfeuchtigkeit
    00:00 +19°C° 0.9 mm 3 m/S 749 mmHg 91%
    01:00 +18°C° 0.9 mm 3 m/S 749 mmHg 92%
    02:00 +18°C° 0.9 mm 3 m/S 749 mmHg 92%
    03:00 +18°C° 0.9 mm 3 m/S 749 mmHg 92%
    04:00 +18°C° 0.9 mm 3 m/S 749 mmHg 93%
    05:00 +18°C° 0.4 mm 3 m/S 749 mmHg 93%
    06:00 +17°C° 0.4 mm 3 m/S 750 mmHg 92%
    07:00 +17°C° 0.4 mm 3 m/S 751 mmHg 92%
    08:00 +17°C° 0.2 mm 3 m/S 751 mmHg 91%
    09:00 +18°C° 0.2 mm 3 m/S 751 mmHg 91%
    10:00 +18°C° 0.2 mm 3 m/S 752 mmHg 90%
    11:00 +18°C° 0.2 mm 3 m/S 751 mmHg 88%
    12:00 +19°C° 0.2 mm 3 m/S 751 mmHg 87%
    13:00 +19°C° 0.2 mm 3 m/S 750 mmHg 85%
    14:00 +19°C° 0.1 mm 2 m/S 750 mmHg 85%
    15:00 +19°C° 0.1 mm 2 m/S 749 mmHg 85%
    16:00 +19°C° 0.1 mm 2 m/S 749 mmHg 85%
    17:00 +19°C° 0 mm 2 m/S 749 mmHg 87%
    18:00 +18°C° 0 mm 2 m/S 750 mmHg 89%
    19:00 +18°C° 0 mm 2 m/S 750 mmHg 91%
    20:00 +19°C° 0 mm 1 m/S 750 mmHg 91%
    21:00 +19°C° 0 mm 1 m/S 751 mmHg 91%
    22:00 +19°C° 0 mm 1 m/S 751 mmHg 91%
    23:00 +19°C° 0 mm 1 m/S 750 mmHg 91%

    27 September, Donnerstag

    Zeit Temperatur Niederschläge Wind Luftdruck Luftfeuchtigkeit
    00:00 +19°C° 0 mm 1 m/S 750 mmHg 91%
    01:00 +19°C° 0 mm 1 m/S 749 mmHg 91%
    02:00 +19°C° 0.3 mm 1 m/S 749 mmHg 91%
    03:00 +19°C° 0.3 mm 1 m/S 749 mmHg 92%
    04:00 +19°C° 0.3 mm 1 m/S 749 mmHg 92%
    05:00 +19°C° 0.1 mm 1 m/S 750 mmHg 92%
    06:00 +20°C° 0.1 mm 1 m/S 750 mmHg 91%
    07:00 +20°C° 0.1 mm 1 m/S 750 mmHg 91%
    08:00 +21°C° 0 mm 1 m/S 751 mmHg 87%
    09:00 +21°C° 0 mm 2 m/S 751 mmHg 83%
    10:00 +23°C° 0 mm 2 m/S 751 mmHg 80%
    11:00 +23°C° 0.1 mm 2 m/S 750 mmHg 78%
    12:00 +23°C° 0.1 mm 2 m/S 750 mmHg 77%
    13:00 +24°C° 0.1 mm 2 m/S 749 mmHg 76%
    14:00 +23°C° 0.1 mm 2 m/S 749 mmHg 77%
    15:00 +23°C° 0.1 mm 1 m/S 748 mmHg 79%
    16:00 +23°C° 0.1 mm 1 m/S 748 mmHg 80%
    17:00 +22°C° 0 mm 1 m/S 749 mmHg 83%
    18:00 +22°C° 0 mm 1 m/S 749 mmHg 86%
    19:00 +21°C° 0 mm 1 m/S 749 mmHg 89%
    20:00 +21°C° 0 mm 1 m/S 750 mmHg 89%
    21:00 +21°C° 0 mm 1 m/S 750 mmHg 90%
    22:00 +20°C° 0 mm 1 m/S 750 mmHg 90%
    23:00 +20°C° 0 mm 1 m/S 750 mmHg 90%

    28 September, Freitag

    Zeit Temperatur Niederschläge Wind Luftdruck Luftfeuchtigkeit
    00:00 +20°C° 0 mm 1 m/S 750 mmHg 90%
    01:00 +20°C° 0 mm 1 m/S 749 mmHg 90%
    02:00 +20°C° 0.4 mm 1 m/S 749 mmHg 90%
    03:00 +20°C° 0.4 mm 1 m/S 749 mmHg 91%
    04:00 +20°C° 0.4 mm 1 m/S 749 mmHg 91%
    05:00 +21°C° 0.2 mm 1 m/S 749 mmHg 90%
    06:00 +21°C° 0.2 mm 1 m/S 750 mmHg 88%
    07:00 +22°C° 0.2 mm 1 m/S 750 mmHg 87%
    08:00 +24°C° 0 mm 2 m/S 750 mmHg 79%
    09:00 +25°C° 0 mm 2 m/S 750 mmHg 72%
    10:00 +27°C° 0 mm 3 m/S 750 mmHg 64%
    11:00 +28°C° 0 mm 3 m/S 749 mmHg 62%
    12:00 +28°C° 0 mm 3 m/S 749 mmHg 60%
    13:00 +29°C° 0 mm 3 m/S 748 mmHg 57%
    14:00 +28°C° 0 mm 3 m/S 748 mmHg 60%
    15:00 +28°C° 0 mm 3 m/S 748 mmHg 63%
    16:00 +27°C° 0 mm 3 m/S 747 mmHg 66%
    17:00 +26°C° 0 mm 2 m/S 748 mmHg 71%
    18:00 +25°C° 0 mm 2 m/S 748 mmHg 77%
    19:00 +23°C° 0 mm 1 m/S 748 mmHg 82%
    20:00 +23°C° 0 mm 1 m/S 748 mmHg 83%
    21:00 +23°C° 0 mm 1 m/S 748 mmHg 84%
    22:00 +22°C° 0 mm 1 m/S 749 mmHg 85%
    23:00 +22°C° 0 mm 1 m/S 748 mmHg 85%
    Mehr zeigen